Location: Poughquag
(41.6090°N, 73.6820°W)
Time: 11:51:45
(UTC-04:00)

Tiros 1 despin weight - Pass Details

Date: 03 June 2020
Orbit: 593 x 642 km, 48.2° (Epoch: 07 July)

Event Time Altitude Azimuth Distance (km) Brightness Sun altitude
Rises 08:30:24 0° 199° (SSW) 2,926 ? 32.6°
Reaches altitude 10° 08:33:12 10° 183° (S) 2,017 ? 33.1°
Maximum altitude 08:36:39 21° 135° (SE) 1,434 ? 33.7°
Drops below altitude 10° 08:40:05 10° 87° (E) 2,010 ? 34.4°
Sets 08:42:51 0° 71° (ENE) 2,912 ? 34.9°
